User: anonymous   Login
Location: Sceptre
(50.8619°N, 109.2670°W)
Time: 13:31:11
(UTC+00:00)
Language:

ZACube-1 - Orbit

View from above orbital plane
View from above orbital plane
View from above satellite
View from above satellite

Ground track
Ground track

The orbit data is extracted from the following two-line orbital elements,

1 39417U 13066B   22176.13002593  .00001719  00000-0  21493-3 0  9991
2 39417  97.6365 147.2799 0058465  21.0886 339.2719 14.82369999464260
Epoch (UTC): 25 June 2022 03:07:14
Eccentricity: 0.0058465
inclination: 97.6365°
perigee height: 581 km
apogee height: 663 km
right ascension of ascending node: 147.2799°
argument of perigee: 21.0886°
revolutions per day: 14.82369999
mean anomaly at epoch: 339.2719°
orbit number at epoch: 46426

The dashed part of the orbit path shows where the satellite is in the earth's shadow,  

DLR